contact:dominique.lefevre@mio.osupytheas.fr, maurice.libes@osupytheas.fr, didier.mallarino@osupytheas.fr
Project:EMSO http://www.emso-fr.org/EMSO-France
Depth: 2436.0 m
Title:EMSO Ligure Ouest : Data MII capteur AQUADOPP
Date,Latitude,Longitude,X_East,Y_North,Z_Up,Amplitude_X,Amplitude_Y,Amplitude_Z,Batterie,SoundSpeed,Heading,Pitch,Roll,Pressure,TIS,Speed,Direction
, degrees North, degrees East, m.s-1, m.s-1,m.s-1, 1, 1, 1, Volt, m.s-1, degree, degree, degree, dbar, degree_C, m.s-1, degree
2021-03-24T00:04:03,42.805,6.029,-0.004,-0.002,-0.01,108.0,107.0,105.0,13.4,1505.2,326.9,-0.8,1.8,2470.493,13.28,0.004,243.4
2021-03-24T00:07:03,42.805,6.029,-0.014,-0.003,-0.012,109.0,106.0,106.0,13.4,1505.2,327.0,-0.7,1.8,2470.508,13.28,0.014,257.9
2021-03-24T00:10:03,42.805,6.029,-0.025,0.0,0.015,108.0,107.0,104.0,13.3,1505.2,327.1,-0.7,1.8,2470.457,13.28,0.025,270.0
2021-03-24T00:13:03,42.805,6.029,-0.022,0.005,-0.009,109.0,107.0,106.0,13.4,1505.2,327.3,-0.8,1.8,2470.497,13.28,0.022,282.8
2021-03-24T00:16:03,42.805,6.029,-0.019,0.002,0.018,108.0,107.0,106.0,13.4,1505.2,327.5,-0.7,1.8,2470.466,13.29,0.019,276.0
2021-03-24T00:19:03,42.805,6.029,-0.026,0.005,0.0,107.0,108.0,105.0,13.3,1505.2,327.2,-0.8,1.8,2470.459,13.29,0.026,280.9
2021-03-24T00:22:03,42.805,6.029,-0.018,-0.003,0.0,108.0,109.0,107.0,13.4,1505.2,327.1,-0.8,1.8,2470.467,13.29,0.018,260.5
2021-03-24T00:25:03,42.805,6.029,-0.014,-0.017,0.002,108.0,107.0,105.0,13.4,1505.2,327.5,-0.7,1.9,2470.445,13.29,0.022,219.5
2021-03-24T00:28:03,42.805,6.029,-0.034,-0.006,-0.026,108.0,107.0,104.0,13.3,1505.2,327.6,-0.7,1.8,2470.471,13.29,0.034,260.0
2021-03-24T00:31:03,42.805,6.029,-0.009,-0.022,0.001,108.0,107.0,103.0,13.4,1505.2,327.7,-0.8,1.8,2470.469,13.29,0.023,202.2
2021-03-24T00:34:03,42.805,6.029,-0.025,-0.016,-0.021,107.0,107.0,106.0,13.4,1505.2,327.5,-0.8,1.8,2470.503,13.29,0.029,237.4
2021-03-24T00:37:03,42.805,6.029,-0.03,0.001,0.004,106.0,107.0,104.0,13.3,1505.2,327.1,-0.8,1.8,2470.457,13.29,0.03,271.9
2021-03-24T00:40:03,42.805,6.029,-0.023,-0.023,-0.005,110.0,108.0,106.0,13.3,1505.2,327.0,-0.8,1.8,2470.49,13.29,0.032,225.0
2021-03-24T00:43:03,42.805,6.029,-0.01,0.006,-0.009,109.0,107.0,104.0,13.4,1505.2,327.0,-0.8,1.8,2470.473,13.29,0.011,301.0
2021-03-24T00:46:03,42.805,6.029,-0.034,0.009,0.017,108.0,107.0,104.0,13.4,1505.2,327.3,-0.8,1.8,2470.486,13.29,0.035,284.8
2021-03-24T00:49:03,42.805,6.029,-0.006,-0.004,-0.008,108.0,108.0,104.0,13.4,1505.2,327.0,-0.8,1.8,2470.485,13.29,0.007,236.3
2021-03-24T00:52:03,42.805,6.029,-0.011,-0.012,0.018,107.0,107.0,104.0,13.4,1505.2,327.6,-0.7,1.8,2470.491,13.29,0.016,222.5
2021-03-24T00:55:03,42.805,6.029,-0.018,0.004,0.022,107.0,107.0,104.0,13.3,1505.2,327.1,-0.8,1.9,2470.465,13.29,0.018,282.5
2021-03-24T00:58:03,42.805,6.029,-0.023,-0.015,-0.001,106.0,107.0,104.0,13.4,1505.2,327.1,-0.7,1.8,2470.524,13.29,0.027,236.9
2021-03-24T01:04:03,42.805,6.029,-0.015,0.001,0.021,107.0,106.0,103.0,13.4,1505.2,327.1,-0.8,1.8,2470.552,13.29,0.015,273.8
2021-03-24T01:07:03,42.805,6.029,-0.012,-0.003,-0.017,108.0,105.0,104.0,13.4,1505.2,327.4,-0.8,1.9,2470.494,13.29,0.012,256.0
2021-03-24T01:10:03,42.805,6.029,-0.007,0.007,0.025,107.0,106.0,103.0,13.4,1505.2,327.7,-0.8,1.8,2470.525,13.29,0.009,315.0
2021-03-24T01:13:03,42.805,6.029,-0.018,0.007,0.003,108.0,105.0,103.0,13.3,1505.2,327.6,-0.8,1.8,2470.486,13.29,0.019,291.2
2021-03-24T01:16:03,42.805,6.029,-0.034,0.0,0.015,106.0,105.0,103.0,13.4,1505.2,327.1,-0.7,1.8,2470.535,13.29,0.034,270.0
2021-03-24T01:19:03,42.805,6.029,-0.018,-0.002,0.023,107.0,104.0,102.0,13.3,1505.2,327.1,-0.7,1.8,2470.509,13.29,0.018,263.7
2021-03-24T01:22:03,42.805,6.029,-0.013,-0.004,0.026,106.0,106.0,103.0,13.4,1505.2,327.5,-0.7,1.8,2470.523,13.29,0.013,252.9
2021-03-24T01:25:03,42.805,6.029,-0.016,-0.003,0.009,104.0,105.0,104.0,13.4,1505.2,327.0,-0.7,1.8,2470.578,13.29,0.016,259.4
2021-03-24T01:28:03,42.805,6.029,-0.009,-0.021,-0.018,106.0,108.0,103.0,13.4,1505.2,327.6,-0.7,1.8,2470.514,13.29,0.022,203.2
2021-03-24T01:31:03,42.805,6.029,-0.004,0.005,0.004,107.0,107.0,104.0,13.3,1505.2,327.5,-0.8,1.8,2470.491,13.29,0.006,321.3
2021-03-24T01:34:03,42.805,6.029,-0.027,-0.001,0.008,106.0,107.0,104.0,13.4,1505.2,327.1,-0.7,1.8,2470.505,13.29,0.027,267.9
2021-03-24T01:37:03,42.805,6.029,-0.006,-0.018,-0.039,106.0,106.0,104.0,13.4,1505.2,327.6,-0.8,1.8,2470.52,13.29,0.018,198.4
2021-03-24T01:40:03,42.805,6.029,-0.008,0.0,0.007,109.0,105.0,103.0,13.4,1505.2,327.3,-0.8,1.8,2470.492,13.29,0.008,270.0
2021-03-24T01:43:03,42.805,6.029,-0.007,0.0,-0.011,106.0,105.0,103.0,13.3,1505.2,327.1,-0.8,1.8,2470.524,13.29,0.007,270.0
2021-03-24T01:46:03,42.805,6.029,-0.039,-0.008,-0.003,105.0,105.0,104.0,13.4,1505.2,327.4,-0.7,1.8,2470.527,13.29,0.039,258.4
2021-03-24T01:49:03,42.805,6.029,-0.036,-0.01,-0.006,107.0,105.0,103.0,13.4,1505.2,327.5,-0.8,1.8,2470.548,13.29,0.037,254.5
2021-03-24T01:52:03,42.805,6.029,-0.006,-0.007,0.02,106.0,107.0,103.0,13.4,1505.2,327.2,-0.7,1.8,2470.557,13.29,0.009,220.6
2021-03-24T01:55:03,42.805,6.029,-0.021,-0.009,-0.004,107.0,106.0,103.0,13.4,1505.2,327.0,-0.8,1.8,2470.553,13.29,0.022,246.8
2021-03-24T01:58:03,42.805,6.029,-0.014,0.011,0.02,108.0,106.0,104.0,13.3,1505.2,327.5,-0.8,1.8,2470.56,13.29,0.017,308.2
2021-03-24T02:04:03,42.805,6.029,-0.031,0.0,0.015,108.0,107.0,103.0,13.4,1505.2,327.0,-0.7,1.8,2470.562,13.29,0.03,270.0
2021-03-24T02:07:03,42.805,6.029,-0.012,0.009,-0.016,109.0,107.0,105.0,13.4,1505.2,327.1,-0.8,1.8,2470.553,13.29,0.015,306.9
2021-03-24T02:10:03,42.805,6.029,-0.024,0.006,-0.005,107.0,106.0,105.0,13.4,1505.2,327.3,-0.8,1.8,2470.554,13.29,0.024,284.0
2021-03-24T02:13:03,42.805,6.029,-0.007,-0.022,-0.003,106.0,106.0,104.0,13.4,1505.2,327.2,-0.7,1.8,2470.56,13.29,0.023,197.6
2021-03-24T02:16:03,42.805,6.029,-0.03,-0.011,0.0,106.0,108.0,103.0,13.4,1505.2,327.0,-0.8,1.8,2470.546,13.29,0.031,249.9
2021-03-24T02:19:03,42.805,6.029,-0.026,-0.006,0.0,106.0,105.0,103.0,13.4,1505.2,327.3,-0.8,1.8,2470.552,13.29,0.026,257.0
2021-03-24T02:22:03,42.805,6.029,0.0,-0.014,-0.011,104.0,106.0,104.0,13.4,1505.2,327.5,-0.7,1.8,2470.556,13.29,0.014,180.0
2021-03-24T02:25:03,42.805,6.029,0.004,-0.028,-0.009,108.0,108.0,104.0,13.3,1505.2,327.7,-0.7,1.8,2470.567,13.29,0.028,171.9
2021-03-24T02:28:03,42.805,6.029,-0.008,-0.023,-0.032,105.0,108.0,104.0,13.4,1505.2,327.5,-0.7,1.8,2470.559,13.29,0.024,199.2
2021-03-24T02:31:03,42.805,6.029,-0.021,-0.016,0.004,108.0,106.0,104.0,13.3,1505.2,326.9,-0.8,1.9,2470.564,13.29,0.026,232.7
2021-03-24T02:34:03,42.805,6.029,-0.013,-0.005,-0.004,109.0,109.0,104.0,13.3,1505.2,327.3,-0.8,1.8,2470.542,13.29,0.013,249.0
2021-03-24T02:37:03,42.805,6.029,-0.013,-0.001,0.025,107.0,106.0,103.0,13.4,1505.2,327.3,-0.8,1.8,2470.574,13.29,0.013,265.6
2021-03-24T02:40:03,42.805,6.029,-0.018,-0.028,0.011,106.0,109.0,103.0,13.3,1505.2,326.8,-0.8,1.8,2470.561,13.29,0.033,212.7
2021-03-24T02:43:03,42.805,6.029,-0.014,0.0,-0.047,108.0,107.0,105.0,13.4,1505.2,327.6,-0.7,1.8,2470.511,13.29,0.014,270.0
2021-03-24T02:46:03,42.805,6.029,0.0,-0.023,-0.03,107.0,106.0,103.0,13.4,1505.2,327.7,-0.8,1.9,2470.561,13.29,0.023,180.0
2021-03-24T02:49:03,42.805,6.029,-0.005,-0.003,0.039,107.0,108.0,103.0,13.4,1505.2,327.2,-0.7,1.8,2470.595,13.29,0.005,239.0
2021-03-24T02:52:03,42.805,6.029,-0.003,-0.015,0.022,108.0,106.0,105.0,13.4,1505.2,327.3,-0.8,1.8,2470.531,13.29,0.015,191.3
2021-03-24T02:55:03,42.805,6.029,-0.018,-0.01,-0.004,107.0,106.0,105.0,13.3,1505.2,327.2,-0.8,1.8,2470.557,13.29,0.02,240.9
2021-03-24T02:58:03,42.805,6.029,-0.028,-0.013,0.009,107.0,104.0,105.0,13.4,1505.2,327.7,-0.8,1.8,2470.595,13.29,0.03,245.1
2021-03-24T03:04:03,42.805,6.029,-0.019,-0.023,-0.006,107.0,107.0,105.0,13.3,1505.2,327.5,-0.7,1.8,2470.593,13.29,0.029,219.6
2021-03-24T03:07:03,42.805,6.029,-0.004,-0.016,-0.005,107.0,107.0,104.0,13.4,1505.2,326.8,-0.8,1.8,2470.596,13.29,0.016,194.0
2021-03-24T03:10:03,42.805,6.029,0.002,0.003,0.001,106.0,105.0,105.0,13.4,1505.2,327.0,-0.7,1.8,2470.594,13.29,0.003,33.7
2021-03-24T03:13:03,42.805,6.029,-0.007,-0.01,0.016,110.0,107.0,104.0,13.4,1505.2,327.0,-0.8,1.8,2470.564,13.29,0.012,215.0
2021-03-24T03:16:03,42.805,6.029,-0.015,0.007,0.01,108.0,106.0,104.0,13.4,1505.2,327.3,-0.8,1.8,2470.598,13.29,0.016,295.0
2021-03-24T03:19:03,42.805,6.029,-0.004,-0.001,0.0,105.0,109.0,105.0,13.4,1505.2,326.9,-0.8,1.8,2470.589,13.29,0.004,256.0
2021-03-24T03:22:03,42.805,6.029,-0.019,-0.006,0.019,107.0,104.0,103.0,13.4,1505.2,326.7,-0.8,1.8,2470.565,13.29,0.019,252.5
2021-03-24T03:25:03,42.805,6.029,-0.033,0.005,0.008,109.0,106.0,104.0,13.4,1505.2,327.2,-0.8,1.8,2470.592,13.29,0.033,278.6
2021-03-24T03:28:03,42.805,6.029,-0.003,-0.019,0.006,107.0,106.0,106.0,13.3,1505.2,327.3,-0.8,1.8,2470.595,13.29,0.019,189.0
2021-03-24T03:31:03,42.805,6.029,-0.002,-0.003,-0.009,108.0,108.0,104.0,13.4,1505.2,327.5,-0.8,1.8,2470.562,13.29,0.003,213.7
2021-03-24T03:34:03,42.805,6.029,-0.017,-0.013,0.006,107.0,106.0,104.0,13.3,1505.2,327.6,-0.8,1.8,2470.631,13.29,0.021,232.6
2021-03-24T03:37:03,42.805,6.029,-0.019,0.001,0.024,109.0,107.0,103.0,13.4,1505.2,327.7,-0.8,1.8,2470.601,13.29,0.019,273.0
2021-03-24T03:40:03,42.805,6.029,0.006,-0.016,-0.006,111.0,106.0,104.0,13.4,1505.2,327.3,-0.7,1.8,2470.62,13.29,0.017,159.4
2021-03-24T03:43:03,42.805,6.029,0.001,0.002,0.01,107.0,108.0,106.0,13.4,1505.2,327.4,-0.7,1.8,2470.61,13.29,0.002,26.6
2021-03-24T03:46:03,42.805,6.029,-0.025,0.008,-0.023,106.0,105.0,105.0,13.3,1505.2,327.3,-0.7,1.8,2470.568,13.29,0.026,287.7
2021-03-24T03:49:03,42.805,6.029,0.003,-0.015,0.013,106.0,106.0,103.0,13.3,1505.2,327.4,-0.7,1.8,2470.596,13.3,0.015,168.7
2021-03-24T03:52:03,42.805,6.029,0.009,-0.007,0.011,106.0,104.0,102.0,13.4,1505.2,327.2,-0.7,1.8,2470.626,13.29,0.011,127.9
2021-03-24T03:55:03,42.805,6.029,-0.009,-0.011,0.001,106.0,108.0,102.0,13.3,1505.2,327.6,-0.7,1.8,2470.572,13.29,0.014,219.3
2021-03-24T03:58:03,42.805,6.029,-0.013,-0.024,-0.015,108.0,105.0,104.0,13.3,1505.2,327.1,-0.8,1.8,2470.588,13.29,0.027,208.4
2021-03-24T04:04:03,42.805,6.029,-0.016,-0.014,0.014,106.0,104.0,103.0,13.4,1505.2,327.6,-0.8,1.8,2470.62,13.29,0.021,228.8
2021-03-24T04:07:03,42.805,6.029,-0.011,-0.029,0.008,107.0,105.0,103.0,13.3,1505.2,327.3,-0.7,1.8,2470.608,13.29,0.031,200.8
2021-03-24T04:10:03,42.805,6.029,-0.031,-0.006,-0.001,108.0,105.0,102.0,13.4,1505.2,327.6,-0.7,1.8,2470.592,13.29,0.031,259.0
2021-03-24T04:13:03,42.805,6.029,0.011,0.005,0.008,108.0,104.0,103.0,13.4,1505.2,327.0,-0.8,1.8,2470.591,13.29,0.012,65.6
2021-03-24T04:16:03,42.805,6.029,-0.017,-0.024,-0.016,106.0,105.0,104.0,13.4,1505.2,327.0,-0.8,1.8,2470.585,13.29,0.029,215.3
2021-03-24T04:19:03,42.805,6.029,-0.018,-0.006,0.009,105.0,109.0,103.0,13.4,1505.2,327.4,-0.8,1.8,2470.615,13.29,0.018,251.6
2021-03-24T04:22:03,42.805,6.029,-0.009,0.002,0.021,106.0,106.0,109.0,13.4,1505.2,327.3,-0.7,1.8,2470.617,13.29,0.009,282.5
2021-03-24T04:25:03,42.805,6.029,0.019,-0.004,0.026,109.0,107.0,103.0,13.4,1505.2,327.3,-0.8,1.8,2470.587,13.29,0.019,101.9
2021-03-24T04:28:03,42.805,6.029,-0.021,0.005,0.005,106.0,105.0,106.0,13.4,1505.2,327.8,-0.8,1.8,2470.56,13.3,0.021,283.4
2021-03-24T04:31:03,42.805,6.029,-0.014,-0.015,-0.011,106.0,103.0,102.0,13.3,1505.2,327.3,-0.7,1.8,2470.606,13.29,0.02,223.0
2021-03-24T04:34:03,42.805,6.029,-0.023,-0.032,-0.001,107.0,106.0,104.0,13.3,1505.2,327.6,-0.8,1.9,2470.613,13.29,0.039,215.7
2021-03-24T04:37:03,42.805,6.029,0.009,-0.011,0.007,104.0,108.0,103.0,13.3,1505.2,327.7,-0.7,1.8,2470.615,13.29,0.014,140.7
2021-03-24T04:40:03,42.805,6.029,-0.026,-0.019,-0.014,106.0,106.0,103.0,13.4,1505.2,327.1,-0.7,1.8,2470.606,13.29,0.032,233.8
2021-03-24T04:43:03,42.805,6.029,-0.032,-0.004,0.0,106.0,104.0,104.0,13.4,1505.2,327.1,-0.8,1.8,2470.643,13.29,0.032,262.9
2021-03-24T04:46:03,42.805,6.029,-0.008,-0.018,-0.014,106.0,107.0,104.0,13.3,1505.2,326.8,-0.7,1.8,2470.608,13.29,0.019,204.0
2021-03-24T04:49:03,42.805,6.029,-0.007,-0.033,-0.03,105.0,105.0,105.0,13.4,1505.2,327.8,-0.7,1.9,2470.622,13.29,0.033,192.0
2021-03-24T04:52:03,42.805,6.029,0.003,-0.008,0.015,105.0,107.0,105.0,13.4,1505.2,327.0,-0.7,1.8,2470.6,13.29,0.008,159.4
2021-03-24T04:55:03,42.805,6.029,-0.011,-0.02,0.029,107.0,106.0,102.0,13.4,1505.2,327.4,-0.8,1.9,2470.576,13.29,0.022,208.8
2021-03-24T04:58:03,42.805,6.029,-0.003,-0.008,-0.001,107.0,107.0,103.0,13.4,1505.2,327.2,-0.7,1.8,2470.634,13.29,0.008,200.6
2021-03-24T05:04:03,42.805,6.029,-0.014,-0.017,-0.004,107.0,106.0,104.0,13.4,1505.2,327.1,-0.8,1.8,2470.678,13.29,0.022,219.5
2021-03-24T05:07:03,42.805,6.029,-0.006,-0.022,-0.001,109.0,106.0,102.0,13.4,1505.2,327.2,-0.8,1.9,2470.609,13.29,0.022,195.3
2021-03-24T05:10:03,42.805,6.029,-0.015,-0.03,0.013,107.0,104.0,103.0,13.4,1505.2,327.2,-0.7,1.8,2470.585,13.29,0.033,206.6
2021-03-24T05:13:03,42.805,6.029,-0.032,-0.014,-0.006,106.0,105.0,103.0,13.3,1505.2,326.9,-0.8,1.8,2470.629,13.29,0.034,246.4
2021-03-24T05:16:03,42.805,6.029,-0.005,-0.001,0.0,106.0,107.0,103.0,13.3,1505.2,326.8,-0.8,1.8,2470.615,13.29,0.005,258.7
2021-03-24T05:19:03,42.805,6.029,-0.023,-0.028,0.018,105.0,105.0,103.0,13.4,1505.2,327.4,-0.8,1.8,2470.628,13.29,0.036,219.4
2021-03-24T05:22:03,42.805,6.029,-0.011,-0.014,0.011,106.0,105.0,102.0,13.4,1505.2,327.6,-0.8,1.8,2470.634,13.29,0.017,218.2
2021-03-24T05:25:03,42.805,6.029,-0.019,-0.016,0.013,107.0,107.0,103.0,13.4,1505.2,327.4,-0.8,1.8,2470.627,13.29,0.024,229.9
2021-03-24T05:28:03,42.805,6.029,-0.007,-0.025,0.003,106.0,105.0,103.0,13.3,1505.2,327.0,-0.8,1.8,2470.593,13.29,0.025,195.6
2021-03-24T05:31:03,42.805,6.029,0.007,-0.043,-0.007,106.0,107.0,102.0,13.4,1505.2,327.3,-0.8,1.8,2470.604,13.29,0.043,170.8
2021-03-24T05:34:03,42.805,6.029,-0.017,-0.023,0.026,106.0,104.0,103.0,13.4,1505.2,327.2,-0.7,1.8,2470.629,13.29,0.028,216.5
2021-03-24T05:37:03,42.805,6.029,0.014,-0.024,0.033,105.0,106.0,103.0,13.3,1505.2,327.6,-0.7,1.8,2470.618,13.29,0.027,149.7
2021-03-24T05:40:03,42.805,6.029,-0.007,-0.035,0.022,106.0,105.0,102.0,13.4,1505.2,326.9,-0.8,1.8,2470.616,13.29,0.035,191.3
2021-03-24T05:43:03,42.805,6.029,0.0,-0.018,0.02,106.0,105.0,104.0,13.4,1505.2,327.5,-0.7,1.8,2470.585,13.29,0.018,180.0
2021-03-24T05:46:03,42.805,6.029,-0.014,-0.008,-0.017,107.0,105.0,105.0,13.4,1505.2,327.4,-0.7,1.8,2470.593,13.29,0.016,240.3
2021-03-24T05:49:03,42.805,6.029,0.002,-0.028,-0.001,106.0,106.0,103.0,13.4,1505.2,327.4,-0.8,1.8,2470.622,13.29,0.028,175.9
2021-03-24T05:52:03,42.805,6.029,-0.015,-0.012,-0.001,106.0,106.0,103.0,13.3,1505.2,327.4,-0.7,1.8,2470.613,13.29,0.019,231.3
2021-03-24T05:55:03,42.805,6.029,-0.006,-0.021,0.0,105.0,106.0,103.0,13.3,1505.2,327.6,-0.8,1.8,2470.605,13.28,0.021,195.9
2021-03-24T05:58:03,42.805,6.029,-0.004,-0.02,0.008,108.0,105.0,104.0,13.3,1505.2,327.7,-0.7,1.8,2470.617,13.28,0.02,191.3
2021-03-24T06:04:03,42.805,6.029,-0.014,-0.014,-0.002,108.0,106.0,103.0,13.4,1505.2,327.3,-0.7,1.8,2470.624,13.28,0.019,225.0
2021-03-24T06:07:03,42.805,6.029,-0.008,-0.014,0.0,106.0,106.0,102.0,13.4,1505.2,327.6,-0.8,1.8,2470.605,13.28,0.016,209.7
2021-03-24T06:10:03,42.805,6.029,-0.001,-0.001,-0.002,105.0,105.0,104.0,13.4,1505.2,327.1,-0.8,1.8,2470.573,13.28,0.001,225.0
2021-03-24T06:13:03,42.805,6.029,0.006,-0.009,-0.012,107.0,105.0,102.0,13.4,1505.2,327.4,-0.7,1.8,2470.608,13.28,0.01,146.3
2021-03-24T06:16:03,42.805,6.029,-0.001,-0.026,0.004,106.0,105.0,102.0,13.4,1505.2,327.5,-0.7,1.8,2470.594,13.28,0.026,182.2
2021-03-24T06:19:03,42.805,6.029,0.016,-0.012,0.0,108.0,106.0,103.0,13.4,1505.2,327.2,-0.7,1.8,2470.602,13.28,0.02,126.9
2021-03-24T06:22:03,42.805,6.029,0.0,-0.013,0.008,106.0,105.0,104.0,13.3,1505.2,327.0,-0.7,1.8,2470.608,13.28,0.013,180.0
2021-03-24T06:25:03,42.805,6.029,0.004,-0.009,-0.015,104.0,105.0,103.0,13.4,1505.2,327.3,-0.8,1.8,2470.583,13.28,0.009,156.0
2021-03-24T06:28:03,42.805,6.029,0.005,-0.022,-0.002,104.0,105.0,102.0,13.4,1505.2,327.1,-0.7,1.8,2470.613,13.28,0.022,167.2
2021-03-24T06:31:03,42.805,6.029,-0.014,-0.022,-0.021,104.0,105.0,103.0,13.4,1505.2,327.0,-0.8,1.8,2470.577,13.28,0.026,212.5
2021-03-24T06:34:03,42.805,6.029,-0.009,-0.023,0.004,106.0,104.0,102.0,13.4,1505.2,327.8,-0.7,1.8,2470.608,13.28,0.024,201.4
2021-03-24T06:37:03,42.805,6.029,-0.007,-0.038,-0.017,104.0,105.0,103.0,13.4,1505.2,327.1,-0.8,1.8,2470.587,13.28,0.038,190.4
2021-03-24T06:40:03,42.805,6.029,0.005,-0.031,0.009,104.0,106.0,102.0,13.4,1505.2,327.2,-0.8,1.8,2470.568,13.28,0.031,170.8
2021-03-24T06:43:03,42.805,6.029,0.013,-0.031,-0.014,104.0,105.0,102.0,13.3,1505.2,327.7,-0.7,1.8,2470.595,13.28,0.033,157.3
2021-03-24T06:46:03,42.805,6.029,0.005,-0.017,0.009,106.0,105.0,102.0,13.3,1505.2,327.5,-0.7,1.8,2470.598,13.28,0.017,163.6
2021-03-24T06:49:03,42.805,6.029,0.007,-0.022,0.013,106.0,105.0,103.0,13.4,1505.2,326.7,-0.8,1.8,2470.621,13.28,0.023,162.4
2021-03-24T06:52:03,42.805,6.029,-0.009,-0.041,-0.013,106.0,105.0,102.0,13.4,1505.2,327.7,-0.7,1.8,2470.601,13.28,0.041,192.4
2021-03-24T06:55:03,42.805,6.029,-0.026,-0.009,0.012,106.0,105.0,104.0,13.4,1505.2,326.9,-0.8,1.9,2470.578,13.28,0.027,250.9
2021-03-24T06:58:03,42.805,6.029,-0.028,-0.035,0.02,106.0,105.0,103.0,13.4,1505.2,327.7,-0.8,1.8,2470.592,13.28,0.044,218.7
2021-03-24T07:04:03,42.805,6.029,0.013,-0.047,0.001,105.0,105.0,104.0,13.4,1505.2,327.5,-0.8,1.8,2470.627,13.28,0.048,164.5
2021-03-24T07:07:03,42.805,6.029,-0.017,-0.014,-0.021,105.0,105.0,103.0,13.4,1505.2,327.3,-0.7,1.8,2470.577,13.28,0.022,230.5
2021-03-24T07:10:03,42.805,6.029,0.003,-0.023,-0.017,106.0,106.0,104.0,13.3,1505.2,327.0,-0.8,1.8,2470.584,13.28,0.023,172.6
2021-03-24T07:13:03,42.805,6.029,-0.006,-0.018,0.026,105.0,105.0,104.0,13.3,1505.2,327.1,-0.7,1.9,2470.6,13.28,0.018,198.4
2021-03-24T07:16:03,42.805,6.029,-0.016,-0.02,0.007,105.0,105.0,103.0,13.4,1505.2,327.2,-0.8,1.8,2470.565,13.28,0.025,218.7
2021-03-24T07:19:03,42.805,6.029,-0.017,-0.034,0.005,105.0,106.0,102.0,13.4,1505.2,327.6,-0.7,1.8,2470.58,13.28,0.038,206.6
2021-03-24T07:22:03,42.805,6.029,0.0,-0.019,0.007,104.0,104.0,103.0,13.4,1505.2,327.4,-0.7,1.8,2470.563,13.28,0.019,180.0
2021-03-24T07:25:03,42.805,6.029,-0.004,-0.018,-0.004,106.0,107.0,103.0,13.4,1505.2,327.0,-0.7,1.8,2470.591,13.28,0.018,192.5
2021-03-24T07:28:03,42.805,6.029,0.0,-0.014,0.035,107.0,105.0,103.0,13.4,1505.2,327.5,-0.7,1.8,2470.597,13.28,0.014,180.0
2021-03-24T07:31:03,42.805,6.029,-0.02,-0.023,-0.021,106.0,106.0,103.0,13.3,1505.2,327.1,-0.7,1.8,2470.574,13.28,0.03,221.0
2021-03-24T07:34:03,42.805,6.029,0.003,-0.033,-0.003,106.0,106.0,104.0,13.4,1505.2,327.1,-0.8,1.8,2470.56,13.28,0.033,174.8
2021-03-24T07:37:03,42.805,6.029,0.0,-0.014,-0.007,107.0,106.0,103.0,13.4,1505.2,327.1,-0.8,1.8,2470.537,13.28,0.014,180.0
2021-03-24T07:40:03,42.805,6.029,-0.021,-0.028,-0.008,108.0,106.0,104.0,13.4,1505.2,327.5,-0.8,1.8,2470.547,13.28,0.035,216.9
2021-03-24T07:43:03,42.805,6.029,-0.017,-0.037,0.014,106.0,107.0,104.0,13.4,1505.2,327.0,-0.8,1.8,2470.586,13.28,0.04,204.7
2021-03-24T07:46:03,42.805,6.029,-0.032,-0.023,-0.017,108.0,108.0,102.0,13.4,1505.2,327.7,-0.7,1.8,2470.579,13.28,0.039,234.3
2021-03-24T07:49:03,42.805,6.029,0.007,-0.005,0.013,107.0,107.0,104.0,13.4,1505.2,327.3,-0.7,1.8,2470.601,13.28,0.008,125.5
2021-03-24T07:52:03,42.805,6.029,0.008,-0.013,-0.002,106.0,106.0,104.0,13.4,1505.2,327.2,-0.8,1.9,2470.567,13.28,0.015,148.4
2021-03-24T07:55:03,42.805,6.029,-0.01,-0.045,0.0,106.0,109.0,105.0,13.4,1505.2,327.5,-0.7,1.8,2470.558,13.28,0.046,192.5
2021-03-24T07:58:03,42.805,6.029,0.0,-0.01,-0.013,107.0,106.0,105.0,13.4,1505.2,327.6,-0.8,1.8,2470.535,13.28,0.01,180.0
2021-03-24T08:04:03,42.805,6.029,0.002,-0.022,-0.004,107.0,106.0,104.0,13.3,1505.2,327.7,-0.8,1.8,2470.583,13.28,0.022,174.8
2021-03-24T08:07:03,42.805,6.029,-0.019,-0.022,0.021,108.0,107.0,104.0,13.3,1505.2,327.0,-0.8,1.8,2470.589,13.28,0.029,220.8
2021-03-24T08:10:03,42.805,6.029,-0.012,-0.025,-0.009,108.0,106.0,104.0,13.4,1505.2,327.3,-0.7,1.8,2470.569,13.28,0.027,205.6
2021-03-24T08:13:03,42.805,6.029,0.004,-0.031,-0.013,106.0,107.0,103.0,13.4,1505.2,327.5,-0.8,1.8,2470.566,13.28,0.031,172.7
2021-03-24T08:16:03,42.805,6.029,-0.024,-0.028,-0.003,108.0,106.0,104.0,13.4,1505.2,327.1,-0.8,1.9,2470.534,13.28,0.036,220.6
2021-03-24T08:19:03,42.805,6.029,-0.027,-0.016,-0.019,107.0,105.0,104.0,13.4,1505.2,327.2,-0.7,1.8,2470.555,13.28,0.031,239.3
2021-03-24T08:22:03,42.805,6.029,-0.013,0.002,-0.009,106.0,109.0,104.0,13.4,1505.2,326.8,-0.8,1.8,2470.56,13.28,0.013,278.7
2021-03-24T08:25:03,42.805,6.029,-0.003,-0.039,-0.018,108.0,106.0,105.0,13.4,1505.2,327.3,-0.8,1.9,2470.5,13.28,0.039,184.4
2021-03-24T08:28:03,42.805,6.029,-0.016,-0.032,-0.032,106.0,107.0,105.0,13.4,1505.2,327.4,-0.8,1.8,2470.543,13.28,0.035,206.6
2021-03-24T08:31:03,42.805,6.029,-0.012,-0.025,-0.011,107.0,107.0,105.0,13.3,1505.2,327.1,-0.7,1.8,2470.508,13.28,0.027,205.6
2021-03-24T08:34:03,42.805,6.029,0.002,0.0,0.007,107.0,107.0,102.0,13.3,1505.2,327.1,-0.8,1.8,2470.542,13.28,0.002,90.0
2021-03-24T08:37:03,42.805,6.029,-0.015,-0.031,-0.018,106.0,106.0,105.0,13.4,1505.2,327.0,-0.8,1.8,2470.582,13.28,0.034,205.8
2021-03-24T08:40:03,42.805,6.029,-0.025,-0.025,-0.017,108.0,106.0,103.0,13.3,1505.2,327.6,-0.8,1.8,2470.58,13.28,0.035,225.0
2021-03-24T08:43:03,42.805,6.029,-0.028,-0.029,-0.009,106.0,107.0,104.0,13.4,1505.2,327.0,-0.8,1.8,2470.522,13.28,0.04,224.0
2021-03-24T08:46:03,42.805,6.029,-0.031,-0.015,-0.002,107.0,106.0,103.0,13.4,1505.2,327.3,-0.7,1.8,2470.556,13.28,0.034,244.2
2021-03-24T08:49:03,42.805,6.029,-0.011,-0.039,-0.009,107.0,107.0,103.0,13.3,1505.2,327.1,-0.7,1.8,2470.525,13.28,0.04,195.7
2021-03-24T08:52:03,42.805,6.029,-0.004,0.0,0.012,107.0,106.0,105.0,13.4,1505.2,327.0,-0.8,1.8,2470.535,13.28,0.004,270.0
2021-03-24T08:55:03,42.805,6.029,-0.019,-0.018,-0.011,108.0,107.0,104.0,13.4,1505.2,327.1,-0.7,1.8,2470.54,13.28,0.026,226.5
2021-03-24T08:58:03,42.805,6.029,-0.007,-0.025,0.002,108.0,107.0,106.0,13.4,1505.2,327.9,-0.8,1.8,2470.501,13.28,0.025,195.6
2021-03-24T09:04:03,42.805,6.029,-0.008,-0.025,0.009,107.0,107.0,105.0,13.4,1505.2,327.8,-0.7,1.8,2470.56,13.28,0.026,197.7
2021-03-24T09:07:03,42.805,6.029,-0.012,-0.029,0.001,108.0,107.0,104.0,13.4,1505.2,327.3,-0.8,1.8,2470.529,13.28,0.031,202.5
2021-03-24T09:10:03,42.805,6.029,-0.026,0.0,0.005,107.0,108.0,106.0,13.4,1505.2,327.7,-0.7,1.8,2470.563,13.28,0.026,270.0
2021-03-24T09:13:03,42.805,6.029,-0.018,-0.026,-0.004,107.0,108.0,104.0,13.4,1505.2,326.8,-0.8,1.8,2470.502,13.28,0.031,214.7
2021-03-24T09:16:03,42.805,6.029,-0.011,-0.03,0.025,106.0,108.0,105.0,13.3,1505.2,327.0,-0.7,1.8,2470.551,13.28,0.031,200.1
2021-03-24T09:19:03,42.805,6.029,-0.028,-0.02,-0.011,107.0,106.0,107.0,13.4,1505.2,327.4,-0.8,1.8,2470.489,13.28,0.034,234.5
2021-03-24T09:22:03,42.805,6.029,0.002,-0.056,0.0,107.0,106.0,105.0,13.3,1505.2,327.1,-0.7,1.8,2470.533,13.28,0.056,178.0
2021-03-24T09:25:03,42.805,6.029,-0.014,-0.019,-0.027,107.0,104.0,105.0,13.3,1505.2,327.1,-0.8,1.8,2470.522,13.28,0.023,216.4
2021-03-24T09:28:03,42.805,6.029,-0.012,-0.019,-0.014,105.0,106.0,104.0,13.4,1505.2,327.1,-0.7,1.8,2470.524,13.28,0.022,212.3
2021-03-24T09:31:03,42.805,6.029,-0.02,-0.046,0.01,107.0,106.0,103.0,13.4,1505.2,327.3,-0.7,1.8,2470.558,13.28,0.05,203.5
2021-03-24T09:34:03,42.805,6.029,-0.015,-0.018,0.006,107.0,107.0,103.0,13.4,1505.2,327.3,-0.7,1.8,2470.515,13.28,0.023,219.8
2021-03-24T09:37:03,42.805,6.029,-0.007,-0.034,-0.021,105.0,105.0,103.0,13.4,1505.2,327.1,-0.7,1.8,2470.539,13.28,0.034,191.6
2021-03-24T09:40:03,42.805,6.029,-0.005,-0.033,-0.03,106.0,107.0,103.0,13.4,1505.2,327.5,-0.8,1.8,2470.533,13.28,0.033,188.6
2021-03-24T09:43:03,42.805,6.029,-0.008,-0.023,-0.036,106.0,108.0,104.0,13.4,1505.2,327.6,-0.7,1.8,2470.51,13.28,0.024,199.2
2021-03-24T09:46:03,42.805,6.029,-0.003,-0.035,0.001,107.0,106.0,104.0,13.4,1505.2,327.8,-0.7,1.8,2470.495,13.28,0.035,184.9
2021-03-24T09:49:03,42.805,6.029,-0.017,-0.022,0.004,109.0,107.0,105.0,13.3,1505.2,327.4,-0.8,1.8,2470.508,13.28,0.027,217.7
2021-03-24T09:52:03,42.805,6.029,-0.017,-0.021,0.016,108.0,107.0,105.0,13.4,1505.2,327.5,-0.8,1.8,2470.503,13.28,0.027,219.0